Regional Weather Roundup
Issued by NWS Albany, NY

Current Version | Previous Version | Text Only | Print | Product List | Glossary On
Versions: 1 2 3 4 5 6 7 8 9 10 11 12 13 14 15 16 17 18 19 20 21 22 23 24 25 26 27 28 29 30 31 32 33 34 35 36 37 38 39 40 41 42 43 44 45 46 47 48 49 50
000 ASUS41 KALY 200010 RWRALY NEW YORK STATE HOURLY WEATHER ROUNDUP NATIONAL WEATHER SERVICE ALBANY NY 800 PM EDT TUE SEP 19 2017 NOTE: "FAIR" INDICATES FEW OR NO CLOUDS BELOW 12,000 FEET WITH NO SIGNIFICANT WEATHER AND/OR NO OBSTRUCTIONS TO VISIBILITY. NYZ032-033-038>043-046>054-057>066-NYZ062>081-082-084-200100- EAST CITY SKY/WX TMP DP RH WIND PRES REMARKS ALBANY CLOUDY 72 60 66 N5 30.00F GLENS FALLS CLEAR 66 59 78 N3 30.02R POUGHKEEPSIE CLOUDY 74 62 66 N7 29.93F NEWBURGH MOCLDY 73 64 73 NE12 29.96F MONTGOMERY CLOUDY 72 63 73 N9 29.94F WHITE PLAINS CLOUDY 69 64 84 N12 29.90S ISLIP CLOUDY 70 67 90 N21G30 29.84F NEW YORK CITY CLOUDY 71 66 84 N15 29.87F CENTRAL PARK CLOUDY 69 66 90 NE8G17 29.91F $$ NYZ005>009-017-018-044>046-055-056-200100- CENTRAL CITY SKY/WX TMP DP RH WIND PRES REMARKS FULTON PTCLDY 68 63 84 NE3 30.00R SYRACUSE MOCLDY 69 62 78 NE5 29.97F ROME PTCLDY 70 63 78 E5 30.01S ELMIRA CLEAR 70 65 84 SE3 29.98S BINGHAMTON CLEAR 68 52 56 NE6 30.01F MONTICELLO PTCLDY 68 61 78 NE6 30.02S $$ NYZ026>034-041>043-087-200100- NORTH CITY SKY/WX TMP DP RH WIND PRES REMARKS WATERTOWN CLOUDY 69 67 93 CALM 30.00R FORT DRUM NOT AVBL OGDENSBURG FAIR 69 65 89 CALM 30.01R MASSENA PTCLDY 69 67 93 CALM 30.02R SARANAC LAKE PTCLDY 64 61 90 CALM 30.06R PLATTSBURGH CLEAR 66 62 87 CALM 30.03R $$ NYZ001>004-010>016-019>021-085-200100- WEST CITY SKY/WX TMP DP RH WIND PRES REMARKS NIAGARA FALLS CLEAR 73 65 75 E5 29.99R BUFFALO CLOUDY 70 68 93 NE7 29.99R DUNKIRK CLEAR 68 65 90 CALM 29.99R JAMESTOWN PTCLDY 70 64 81 N6 30.03R WELLSVILLE CLEAR 69 57 65 NE3 30.06R ROCHESTER PTCLDY 73 62 68 E7 29.99F PENN YAN CLEAR 66 60 81 CALM 30.01S $$ KEY WCI = WIND CHILL INDEX VSB = VISIBILITY HX = HEAT INDEX $$

USA.gov is the U.S. government's official web portal to all federal, state and local government web resources and services.